Flag for U.S.A. Weather past 2 weeks in Metlakatla, Alaska, U.S.A.

46 °F

Mostly cloudy.

Feels Like: 41 °F
Forecast: 41 / 46 °F
Wind: 12 mph from Southeast

Location: Metlakatla - Metlakatla Seaplane Base

Current Time: Nov 30, 2015 at 12:34:16 PM

Latest Report: Nov 30, 2015 at 11:56 AM

Visibility: 10 mi

Pressure: 29.76 "Hg

Humidity: 66%

Dew point: 36 °F

Location of MetlakatlaLocation

Historic Weather in Metlakatla — Graph


Metlakatla temperature yesterday

Maximum temperature yesterday: 52 °F (at 11:36 AM)
Minimum temperature yesterday: 41 °F (at 5:16 AM)
Average temperature yesterday: 46 °F

Past Weeks' High & Low Weather Summary

High52 °F (Nov 27, 12:56 PM)100% (Nov 17, 11:16 PM)30.52 "Hg (Nov 17, 11:16 PM)
Low30 °F (Nov 25, 9:36 PM)26% (Nov 29, 12:16 PM)28.83 "Hg (Nov 16, 11:36 AM)
Average41 °F73%30.13 "Hg
* Reported Nov 15 11:36 AM — Nov 30 11:16 AM, Metlakatla, Weather by CustomWeather, © 2015

Note: Actual official high and low records may vary slightly from our data, if they occured in-between our weather recording intervals... More about our weather records


Metlakatla weather history for previous 24 hours

Time TempWeatherWind HumidityBarometerVisibility
11:16 AM
Mon, Nov 30
48 °FMostly cloudy.12 mph62%29.78 "Hg10 mi
10:56 AM48 °FOvercast.12 mph62%29.79 "Hg10 mi
10:36 AM46 °FMostly cloudy.12 mph66%29.79 "Hg10 mi
10:16 AM48 °FCloudy.7 mph66%29.80 "Hg10 mi
9:56 AM48 °FMore clouds than sun.10 mph62%29.80 "Hg10 mi
9:36 AM48 °FMore clouds than sun.15 mph62%29.80 "Hg10 mi
9:16 AM48 °FMostly cloudy.8 mph62%29.80 "Hg10 mi
8:56 AM48 °FBroken clouds.16 mph62%29.81 "Hg10 mi
8:16 AM48 °FMostly cloudy.15 mph62%29.81 "Hg10 mi
7:56 AM48 °FMore clouds than sun.8 mph62%29.81 "Hg10 mi
7:36 AM48 °FMostly cloudy.13 mph62%29.81 "Hg10 mi
7:16 AM48 °FOvercast.8 mph62%29.82 "Hg10 mi
6:56 AM48 °FMostly cloudy.13 mph66%29.82 "Hg10 mi
6:36 AM46 °FPartly cloudy.15 mph66%29.82 "Hg10 mi
6:16 AM46 °FOvercast.12 mph71%29.82 "Hg10 mi
5:56 AM45 °FMostly cloudy.8 mph76%29.84 "Hg10 mi
5:36 AM45 °FMostly cloudy.8 mph81%29.84 "Hg10 mi
5:16 AM46 °FMostly cloudy.8 mph71%29.84 "Hg10 mi
4:56 AM46 °FMostly cloudy.12 mph71%29.84 "Hg10 mi
4:36 AM46 °FMostly cloudy.16 mph71%29.85 "Hg10 mi
4:16 AM48 °FOvercast.12 mph66%29.85 "Hg10 mi
3:56 AM46 °FMostly cloudy.8 mph76%29.85 "Hg10 mi
3:36 AM46 °FOvercast.10 mph76%29.86 "Hg10 mi
3:16 AM46 °FOvercast.8 mph76%29.87 "Hg9 mi
2:56 AM46 °FOvercast.9 mph71%29.87 "Hg10 mi
2:36 AM46 °FMostly cloudy.10 mph71%29.88 "Hg10 mi
2:16 AM45 °FMostly cloudy.14 mph76%29.88 "Hg10 mi
1:56 AM45 °FOvercast.9 mph76%29.88 "Hg10 mi
1:36 AM45 °FOvercast.8 mph76%29.88 "Hg10 mi
1:16 AM45 °FMostly cloudy.8 mph76%29.89 "Hg10 mi
12:56 AM46 °FMostly cloudy.16 mph71%29.89 "Hg10 mi
12:36 AM46 °FPartly cloudy.14 mph66%29.89 "Hg10 mi
12:16 AM48 °FOvercast.18 mph62%29.89 "Hg10 mi
11:56 PM
Sun, Nov 29
50 °FOvercast.13 mph58%29.90 "Hg10 mi
11:36 PM50 °FOvercast.17 mph54%29.90 "Hg10 mi
11:16 PM50 °FOvercast.10 mph58%29.90 "Hg10 mi
10:16 PM50 °FOvercast.15 mph58%29.91 "Hg10 mi
9:56 PM48 °FOvercast.8 mph62%29.90 "Hg10 mi
9:36 PM50 °FOvercast.12 mph58%29.91 "Hg10 mi
8:56 PM48 °FOvercast.13 mph58%29.91 "Hg10 mi
8:36 PM48 °FOvercast.16 mph58%29.91 "Hg10 mi
8:16 PM48 °FOvercast.15 mph58%29.92 "Hg10 mi
7:36 PM48 °FOvercast.13 mph62%29.92 "Hg10 mi
6:36 PM46 °FOvercast.12 mph62%29.93 "Hg10 mi
6:16 PM46 °FPassing clouds.14 mph62%29.94 "Hg10 mi
5:56 PM46 °FClear.9 mph62%29.94 "Hg10 mi
5:36 PM46 °FClear.12 mph62%29.95 "Hg10 mi
4:56 PM45 °FClear.10 mph53%29.95 "Hg10 mi
4:16 PM46 °FClear.12 mph46%29.95 "Hg10 mi
3:36 PM46 °FClear.9 mph34%29.95 "Hg10 mi
3:16 PM46 °FSunny.6 mph37%29.96 "Hg10 mi
2:56 PM46 °FSunny.8 mph37%29.95 "Hg10 mi
2:36 PM46 °FSunny.9 mph37%29.95 "Hg10 mi
1:36 PM52 °FSunny.15 mph28%29.95 "Hg10 mi
12:56 PM50 °FSunny.9 mph30%29.97 "Hg10 mi
12:36 PM50 °FSunny.13 mph30%29.98 "Hg10 mi
12:16 PM52 °FSunny.12 mph26%29.99 "Hg10 mi
Weather by CustomWeather, © 2015

See weather overviewHow to use our weather pages